Weather History for Hanford, CA

Change the Weather History Date:

Sunday, August 26, 2012

  Actual Average Record
Temperature  
Mean Temperature 76 °F 77 °F  
Max Temperature 91 °F 95 °F 105 °F (2010)
Min Temperature 60 °F 60 °F 56 °F (2009)
Degree Days  
Heating Degree Days 0    
Month to date heating degree days 0  
Since 1 June heating degree days 3  
Since 1 July heating degree days 0  
Cooling Degree Days 11    
Month to date cooling degree days 474  
Year to date cooling degree days 1495  
Since 1 June cooling degree days 1255  
Growing Degree Days 25 (Base 50)    
Moisture  
Dew Point 49 °F    
Average Humidity 44    
Maximum Humidity 72    
Minimum Humidity 16    
Precipitation  
Precipitation 0.00 in 0.00 in 0.00 in (2014)
Month to date precipitation T 0.01  
Year to date precipitation 4.58 6.79  
Since 1 July precipitation T 0.03  
Snow  
Snow 0.00 in - - ()
Month to date snowfall 0.0  
Since 1 June snowfall 0.0  
Since 1 July snowfall 0.0  
Snow Depth 0.00 in    
Sea Level Pressure  
Sea Level Pressure 29.86 in    
Wind  
Wind Speed 7 mph (NW)    
Max Wind Speed 14 mph    
Max Gust Speed 20 mph    
Visibility 10 miles    
Events      
T = Trace of Precipitation, MM = Missing Value Source: NWS Daily Summary

Daily Weather History Graph

Daily Weather History Graph

Search for Another Location

Airport:

Trip Planner

Search our weather history database for the weather conditions in past years. The results will help you decide how hot, cold, wet, or windy it might be!

Date:

Astronomy

Aug. 26, 2012 Rise Set
Actual Time 6:25 AM PDT 7:33 PM PDT
Civil Twilight 5:59 AM PDT 8:00 PM PDT
Nautical Twilight 5:27 AM PDT 8:32 PM PDT
Astronomical Twilight 4:54 AM PDT 9:04 PM PDT
Moon 4:03 PM PDT (8/26) 1:17 AM PDT (8/26)
Length of Visible Light 14h 01m
Length of Day
13h 08m
Waxing Gibbous, 74% of the Moon is Illuminated
Aug 26
Waxing Gibbous
Aug 31
Full
Sep 8
Last Quarter
Sep 15
New
Sep 22
First Quarter

Hourly Weather History & Observations

Time (PDT) Temp. Dew Point Humidity Pressure Visibility Wind Dir Wind Speed Gust Speed Precip Events Conditions
12:53 AM 72.0 °F 51.1 °F 48% 29.77 in 10.0 mi NNW 8.1 mph - N/A   Clear
1:53 AM 70.0 °F 52.0 °F 53% 29.78 in 10.0 mi WNW 4.6 mph - N/A   Clear
2:53 AM 66.9 °F 51.1 °F 57% 29.79 in 10.0 mi NW 5.8 mph - N/A   Clear
3:53 AM 64.9 °F 51.1 °F 61% 29.80 in 10.0 mi NW 6.9 mph - N/A   Clear
4:53 AM 63.0 °F 51.1 °F 65% 29.82 in 10.0 mi NW 8.1 mph - N/A   Clear
5:53 AM 62.1 °F 50.0 °F 65% 29.83 in 10.0 mi NW 5.8 mph - N/A   Clear
6:53 AM 60.1 °F 51.1 °F 72% 29.86 in 10.0 mi NW 3.5 mph - N/A   Clear
7:53 AM 64.9 °F 51.1 °F 61% 29.88 in 10.0 mi NW 6.9 mph - N/A   Clear
8:53 AM 70.0 °F 51.1 °F 51% 29.90 in 10.0 mi North 4.6 mph - N/A   Clear
9:53 AM 73.9 °F 50.0 °F 43% 29.91 in 10.0 mi NW 8.1 mph - N/A   Clear
10:53 AM 78.1 °F 45.0 °F 31% 29.92 in 10.0 mi NW 6.9 mph - N/A   Clear
11:53 AM 82.0 °F - N/A% 29.92 in 10.0 mi NNW 6.9 mph - N/A   Clear
12:53 PM 84.9 °F 48.0 °F 28% 29.90 in 10.0 mi WNW 5.8 mph - N/A   Clear
2:53 PM 89.1 °F - N/A% 29.87 in 10.0 mi NNW 5.8 mph - N/A   Clear
3:53 PM 90.0 °F 45.0 °F 21% 29.86 in 10.0 mi NNW 6.9 mph - N/A   Clear
4:53 PM 90.0 °F 37.9 °F 16% 29.86 in 10.0 mi North 5.8 mph - N/A   Clear
5:53 PM 89.1 °F - N/A% 29.84 in 10.0 mi NNW 6.9 mph - N/A   Clear
6:53 PM 87.1 °F - N/A% 29.84 in 10.0 mi North 6.9 mph - N/A   Clear
7:53 PM 82.9 °F - N/A% 29.85 in 10.0 mi WNW 5.8 mph - N/A   Clear
8:53 PM 79.0 °F 48.9 °F 35% 29.88 in 10.0 mi NW 11.5 mph - N/A   Clear
9:53 PM 75.9 °F 48.0 °F 37% 29.90 in 10.0 mi NNW 11.5 mph - N/A   Clear
10:53 PM 73.0 °F 50.0 °F 44% 29.91 in 10.0 mi NW 11.5 mph - N/A   Clear
11:53 PM 70.0 °F 52.0 °F 53% 29.92 in 10.0 mi NW 11.5 mph - N/A   Clear